Home   Weather   Waidhofen an der Ybbs   Past weeks

Flag for Austria Past Weather in Waidhofen an der Ybbs, Lower Austria, Austria — Yesterday and Last 2 Weeks

Now
33 °F

Chilly.


Feels Like: 33 °F
Forecast: 20 / 33 °F
Wind: 2 mph from West

Location: Amstetten

Current Time: Dec 2, 2016 at 9:01:40 pm

Latest Report: Dec 2, 2016 at 8:00 pm


Visibility: N/A

Pressure: 30.22 "Hg

Humidity: 98%

Dew Point: 33 °F

Location of Waidhofen an der YbbsLocation

Past Weather in Waidhofen an der Ybbs — Graph

°F

Waidhofen an der Ybbs Temperature Yesterday

Maximum temperature yesterday: 41 °F (at 2:00 pm)
Minimum temperature yesterday: 35 °F (at 12:00 am)
Average temperature yesterday: 39 °F

High & Low Weather Summary for the Past Weeks

 TemperatureHumidityPressure
High64 °F (Nov 21, 3:00 pm)100% (Nov 17, 7:00 pm)30.61 "Hg (Nov 17, 7:00 pm)
Low20 °F (Nov 30, 8:00 am)49% (Nov 28, 11:00 am)29.75 "Hg (Nov 21, 3:00 pm)
Average41 °F88%30.11 "Hg
* Reported Nov 17 7:00 pm — Dec 2 7:00 pm, Waidhofen an der Ybbs, Weather by CustomWeather, © 2016

Note: Actual official high and low records may vary slightly from our data, if they occured in-between our weather recording intervals... More about our weather records

Advertising

Waidhofen an der Ybbs Weather History for the Previous 24 Hours

Scroll right to see more
 ConditionsComfort  
Time TempWeatherWind HumidityBarometerVisibility
7:00 pm
Fri, Dec 2
35 °FChilly.1 mph95%30.20 "HgN/A
6:00 pm36 °FChilly.1 mph89%30.18 "HgN/A
5:00 pm36 °FChilly.1 mph87%30.17 "HgN/A
4:00 pm37 °FChilly.2 mph84%30.16 "HgN/A
3:00 pm36 °FFog.3 mph87%30.13 "HgN/A
2:00 pm36 °FFog.5 mph94%30.11 "HgN/A
1:00 pm39 °FFog.5 mph87%30.10 "HgN/A
12:00 pm42 °FQuite cool.6 mph80%30.05 "HgN/A
11:00 am42 °FQuite cool.7 mph80%30.03 "HgN/A
10:00 am42 °FQuite cool.8 mph77%30.00 "HgN/A
9:00 am41 °FQuite cool.9 mph79%29.98 "HgN/A
8:00 am41 °FQuite cool.9 mph78%29.97 "HgN/A
6:00 am42 °FQuite cool.9 mph73%29.98 "HgN/A
5:00 am41 °FQuite cool.8 mph74%30.00 "HgN/A
4:00 am41 °FQuite cool.8 mph72%30.02 "HgN/A
3:00 am41 °FQuite cool.8 mph71%30.03 "HgN/A
2:00 am41 °FQuite cool.7 mph72%30.05 "HgN/A
1:00 am40 °FQuite cool.7 mph72%30.07 "HgN/A
12:00 am39 °FChilly.7 mph70%30.09 "HgN/A
11:00 pm
Thu, Dec 1
39 °FChilly.7 mph70%30.10 "HgN/A
10:00 pm40 °FChilly.6 mph66%30.11 "HgN/A
9:00 pm40 °FChilly.5 mph58%30.12 "HgN/A
Weather by CustomWeather, © 2016

See weather overviewHow to use our weather pages